Location: Middelsbur
(53.6609°N, 7.5020°E)
Time: 12:58:04
(UTC+00:00)

Cosmos 1452 Rocket - Pass Details

Date: 06 July 2020
Orbit: 768 x 774 km, 74.1° (Epoch: 06 August)

Event Time Altitude Azimuth Distance (km) Brightness Sun altitude
Rises 22:47:39 0° 333° (NNW) 3,260 8.4 -13.1°
Reaches altitude 10° 22:50:03 10° 334° (NNW) 2,328 7.3 -13.2°
Maximum altitude 22:55:21 85° 64° (ENE) 781 3.5 -13.3°
Enters shadow 22:59:20 18° 152° (SSE) 1,824 4.9 -13.4°
